Weather History for Douglas, WY

Change the Weather History Date:

Sunday, December 30, 2012

  Actual Average Record
Temperature  
Mean Temperature 17 °F 24 °F  
Max Temperature 31 °F 38 °F 54 °F (2011)
Min Temperature 2 °F 10 °F -4 °F (2001)
Degree Days  
Heating Degree Days 48 41  
Month to date heating degree days 1026 1226  
Since 1 July heating degree days 2573 3048  
Cooling Degree Days 0 0  
Month to date cooling degree days 0 0  
Year to date cooling degree days 831 486  
Moisture  
Dew Point 4 °F    
Average Humidity 56    
Maximum Humidity 83    
Minimum Humidity 29    
Precipitation  
Precipitation 0.00 in 0.01 in 0.19 in (2010)
Month to date precipitation 0.07 0.39  
Year to date precipitation 5.33 13.38  
Sea Level Pressure  
Sea Level Pressure 30.14 in    
Wind  
Wind Speed 6 mph (NW)    
Max Wind Speed 22 mph    
Max Gust Speed 28 mph    
Visibility 10 miles    
Events      
T = Trace of Precipitation, MM = Missing Value Source: NWS Daily Summary

Daily Weather History Graph

Daily Weather History Graph

Search for Another Location

Airport:

Trip Planner

Search our weather history database for the weather conditions in past years. The results will help you decide how hot, cold, wet, or windy it might be!

Date:

Astronomy

Dec. 30, 2012 Rise Set
Actual Time 7:32 AM MST 4:36 PM MST
Civil Twilight 6:59 AM MST 5:09 PM MST
Nautical Twilight 6:24 AM MST 5:44 PM MST
Astronomical Twilight 5:49 AM MST 6:19 PM MST
Moon 7:14 PM MST (12/30) 8:39 AM MST (12/30)
Length of Visible Light 10h 09m
Length of Day
9h 04m
Waning Gibbous, 95% of the Moon is Illuminated
Dec 30
Waning Gibbous
Jan 4
Last Quarter
Jan 11
New
Jan 18
First Quarter
Jan 26
Full

Hourly Weather History & Observations

Time (MST) Temp. Windchill Dew Point Humidity Pressure Visibility Wind Dir Wind Speed Gust Speed Precip Events Conditions
12:53 AM 27.0 °F 16.1 °F -2.0 °F 29% 30.00 in 10.0 mi West 12.7 mph 23.0 mph N/A   Clear
1:53 AM 24.1 °F 17.0 °F -0.9 °F 34% 30.01 in 10.0 mi WSW 5.8 mph - N/A   Clear
2:53 AM 21.9 °F 14.5 °F 1.0 °F 40% 30.01 in 10.0 mi WNW 5.8 mph - N/A   Clear
3:53 AM 12.0 °F -1.3 °F 1.9 °F 64% 30.06 in 10.0 mi NW 10.4 mph - N/A   Clear
4:53 AM 16.0 °F 3.6 °F 3.0 °F 57% 30.09 in 10.0 mi NW 10.4 mph - N/A   Clear
5:53 AM 9.0 °F -0.9 °F -0.0 °F 67% 30.14 in 10.0 mi WNW 5.8 mph - N/A   Clear
6:53 AM 8.1 °F -5.3 °F -2.0 °F 64% 30.16 in 10.0 mi North 9.2 mph - N/A   Clear
7:53 AM 14.0 °F 2.9 °F 1.9 °F 59% 30.14 in 10.0 mi NW 8.1 mph - N/A   Clear
8:53 AM 14.0 °F 3.9 °F 1.9 °F 59% 30.16 in 10.0 mi WNW 6.9 mph - N/A   Clear
9:53 AM 19.0 °F 9.0 °F 7.0 °F 59% 30.18 in 10.0 mi West 8.1 mph - N/A   Clear
10:53 AM 24.1 °F - 9.0 °F 53% 30.15 in 10.0 mi Calm Calm - N/A   Clear
11:53 AM 28.9 °F 21.1 °F 12.0 °F 49% 30.05 in 10.0 mi NW 8.1 mph - 0.03 in   Clear
12:53 PM 30.9 °F 19.8 °F 12.0 °F 46% 30.04 in 10.0 mi NW 16.1 mph - 0.01 in   Clear
1:53 PM 30.0 °F 20.0 °F 12.0 °F 47% 30.05 in 10.0 mi NNW 12.7 mph - N/A   Clear
2:53 PM 30.0 °F 21.7 °F 10.9 °F 45% 30.09 in 10.0 mi NW 9.2 mph - N/A   Clear
3:53 PM 27.0 °F - 9.0 °F 47% 30.15 in 10.0 mi Calm Calm - N/A   Clear
4:53 PM 17.1 °F 6.6 °F 6.1 °F 62% 30.17 in 10.0 mi NNW 8.1 mph - N/A   Clear
5:53 PM 10.9 °F - 3.0 °F 70% 30.24 in 10.0 mi Calm Calm - N/A   Clear
6:53 PM 10.0 °F - 3.0 °F 73% 30.26 in 10.0 mi Calm Calm - N/A   Clear
7:53 PM 5.0 °F -2.1 °F -0.0 °F 80% 30.24 in 10.0 mi WNW 3.5 mph - N/A   Clear
8:53 PM 7.0 °F - 1.9 °F 80% 30.24 in 10.0 mi Calm Calm - N/A   Clear
9:53 PM 5.0 °F - -0.0 °F 80% 30.24 in 10.0 mi Calm Calm - N/A   Clear
10:53 PM 3.0 °F - -2.0 °F 80% 30.23 in 10.0 mi Calm Calm - N/A   Scattered Clouds
11:53 PM 5.0 °F - -0.0 °F 80% 30.20 in 10.0 mi Calm Calm - N/A   Overcast